Location: Czernica
(51.0462°N, 17.2458°E)
Time: 23:02:48
(UTC+01:00)

ISS - Pass Details

Date: 28 January 2019
Orbit: 403 x 411 km, 51.6° (Epoch: 20 February)

Event Time Altitude Azimuth Distance (km) Brightness Sun altitude
Rises 19:07:18 0° 265° (W) 2,337 1.5 -23.9°
Reaches altitude 10° 19:09:23 10° 267° (W) 1,478 0.1 -24.2°
Enters shadow 19:11:28 35° 271° (W) 679 -2.2 -24.5°
